This is the latest recevied weather packets stored in our database for station/object OK1FET-4. If no packets are shown the sender has not sent any weather packets the latest 1 day(s).
| Time | Temp. | Humidity | Pressure | Rain* | Wind** | Luminosity | Snow |
|---|---|---|---|---|---|---|---|
| 1778011912 | 17.22° C | 59% | 1005.4 hPa | - | 2.68 m/s, 310° | - | - |
| 1778011912 | 17.22° C | 59% | 1005.4 hPa | - | 2.68 m/s, 310° | - | - |
| 1778011912 | 17.22° C | 59% | 1005.4 hPa | - | 2.68 m/s, 310° | - | - |
| 1778011612 | 17.78° C | 58% | 1005.3 hPa | - | 2.68 m/s, 312° | - | - |
| 1778011612 | 17.78° C | 58% | 1005.3 hPa | - | 2.68 m/s, 312° | - | - |
| 1778011311 | 17.78° C | 59% | 1005.3 hPa | - | 1.79 m/s, 268° | - | - |
| 1778011311 | 17.78° C | 59% | 1005.3 hPa | - | 1.79 m/s, 268° | - | - |
| 1778011311 | 17.78° C | 59% | 1005.3 hPa | - | 1.79 m/s, 268° | - | - |
| 1778011010 | 17.78° C | 59% | 1005.2 hPa | - | 3.13 m/s, 263° | - | - |
| 1778011010 | 17.78° C | 59% | 1005.2 hPa | - | 3.13 m/s, 263° | - | - |
| 1778011010 | 17.78° C | 59% | 1005.2 hPa | - | 3.13 m/s, 263° | - | - |
| 1778010709 | 17.22° C | 60% | 1005.2 hPa | - | 4.47 m/s, 285° | - | - |
| 1778010709 | 17.22° C | 60% | 1005.2 hPa | - | 4.47 m/s, 285° | - | - |
| 1778010709 | 17.22° C | 60% | 1005.2 hPa | - | 4.47 m/s, 285° | - | - |
| 1778010409 | 17.22° C | 61% | 1005.1 hPa | - | 5.36 m/s, 260° | - | - |
| 1778010409 | 17.22° C | 61% | 1005.1 hPa | - | 5.36 m/s, 260° | - | - |
| 1778010409 | 17.22° C | 61% | 1005.1 hPa | - | 5.36 m/s, 260° | - | - |
| 1778010108 | 17.22° C | 61% | 1005 hPa | - | 4.47 m/s, 280° | - | - |
| 1778010108 | 17.22° C | 61% | 1005 hPa | - | 4.47 m/s, 280° | - | - |
| 1778010108 | 17.22° C | 61% | 1005 hPa | - | 4.47 m/s, 280° | - | - |
| 1778009807 | 17.22° C | 61% | 1004.9 hPa | - | 6.26 m/s, 276° | - | - |
| 1778009807 | 17.22° C | 61% | 1004.9 hPa | - | 6.26 m/s, 276° | - | - |
| 1778009807 | 17.22° C | 61% | 1004.9 hPa | - | 6.26 m/s, 276° | - | - |
| 1778009507 | 16.67° C | 62% | 1005.2 hPa | - | 6.26 m/s, 276° | - | - |
| 1778009506 | 16.67° C | 62% | 1005.2 hPa | - | 6.26 m/s, 276° | - | - |
* Rain since midnight (hover to see other rain measurements)
** Current wind speed in m/s (hover to see current wind gust speed)